CMB848 Details

Departure: Bahrain International Airport (OBBI)
Arrival: Naval Station Rota (LERT) at N/A
Route: NARMI N697 KITOT SISIK UN697 MENLI L677 CVO A1 NOZ A1 METRU P868 ARLOS T340 EVLIB M871 XATOS UM871 SOTAX UN733 CDP R59 ALT MGA
Notes: USTRANSCOM CONTRACT FLIGHT


Current Weather Information
OBBI 171730Z 34006KT CAVOK 35/20 Q0999 NOSIG
LERT 171700Z 27013KT 240V310 CAVOK 27/19 Q1012 NOSIG